Overview Statistics Trail Chart Weather Telemetry Raw packets
 

This is the latest recevied weather packets stored in our database for station/object SV7GBF-2. If no packets are shown the sender has not sent any weather packets the latest 10 day(s).

<< 30 31 32 33 34 35 36 >>
Time Temp. Humidity Pressure Rain* Wind** Luminosity Snow
1788093243 30.56° C 23% 1015 hPa - - - -
1788092643 30.56° C 29% 1016 hPa - - - -
1788092043 30° C 33% 1016 hPa - - - -
1788091443 29.44° C 36% 1016 hPa - - - -
1788090843 30° C 37% 1016 hPa - - - -
1788090243 29.44° C 43% 1016 hPa - - - -
1788089643 29.44° C 44% 1016 hPa - - - -
1788089043 28.89° C 47% 1016 hPa - - - -
1788088443 28.89° C 48% 1016 hPa - - - -
1788087843 28.89° C 42% 1016 hPa - - - -
1788087245 28.33° C 41% 1016 hPa - - - -
1788086644 28.33° C 45% 1016 hPa - - - -
1788086044 27.78° C 45% 1017 hPa - - - -
1788084847 28.33° C 39% 1016 hPa - - - -
1788083644 27.78° C 46% 1017 hPa - - - -
1788081843 26.67° C 48% 1017 hPa - - - -
1788081245 26.67° C 48% 1017 hPa - - - -
1788080644 26.67° C 48% 1017 hPa - - - -
1788080044 26.67° C 47% 1017 hPa - - - -
1788079445 26.67° C 48% 1017 hPa - - - -
1788078243 26.11° C 50% 1017 hPa - - - -
1788077644 26.11° C 50% 1017 hPa - - - -
1788077043 25.56° C 51% 1017 hPa - - - -
1788076444 25.56° C 52% 1017 hPa - - - -
1788075844 25.56° C 48% 1017 hPa - - - -

* Rain since midnight (hover to see other rain measurements)
** Current wind speed in m/s (hover to see current wind gust speed)